Seyi Olu Awofeso
Seyi Olu Awofeso
2260
OFFLINE
8 years ago
49

Articles


List of articles by this author. See other tabs for other types of contribution

DateTitleHitsRating
09/17/2014 15:01:03"They want to beat up the President"579 / 0
08/11/2014 10:19:02Foreigners Panic Over Nigeria967 / 0
06/27/2014 11:59:54Triage for the haemorrhage609 / 0
06/18/2014 14:30:59Goodluck Jonathan and his enemies627 / 0
04/04/2014 07:19:18Nigeria and the Crimean Conundrum717 / 0
03/07/2014 08:34:11Who stole ₦38.23billion at Nigeria's Central Bank?790 / 0
12/21/2013 12:44:50Journalism Betrayed1594 / 2
11/22/2013 06:48:25Leaky sieves of Nigeria's treasury1042 / 0
10/26/2013 12:00:45Jonathan, Obama, and, Al Qaeda877 / 0
10/12/2013 08:19:06Armoury for the Catechist900 / 0
09/24/2013 00:43:55Why Nigeria Voted "No!" at United Nations918 / 0
09/15/2013 08:56:24State of Nigerian Nation in 2013938 / 0
09/04/2013 18:12:34PDP's laws change at night1037 / 0
08/18/2013 22:00:43"Nigeria long past the happy hour"1310 / 0
07/25/2013 10:26:52Home truth from Buenos Aires 1368 / 0
07/01/2013 12:18:37Road to Nigeria's Revolution934 / 0
05/26/2013 19:37:45Terror in Nigeria's Supreme Court1639 / 0
04/09/2013 20:14:46Sultan of Sokoto's Dilemma1043 / 0
03/28/2013 21:16:49Czech President Impeached For State Pardon1875 / 0
03/25/2013 09:11:34For a Ministry of Logical Thinking 1340 / 0
03/13/2013 15:48:03Encyclical to United Nations1480 / 0
01/17/2013 04:05:502/3rds Of 19 States: Awolowo V Shagari2235 / 0
01/14/2013 13:05:19Stealing is the Problem with Nigeria1178 / 0
12/16/2012 09:37:41"alpha Beta Ltd And Its True Federalism"2208 / 0
12/09/2012 11:04:15Path To Nigerians' Freedom1628 / 1
08/12/2012 12:20:23Nigeria Goes Rogue From Merida Convention848 / 0
07/13/2012 14:08:22"At 5.30pm; July 13, 2012"1313 / 0
03/15/2012 12:52:47Action Congress (AC) And Lagos State Finances1566 / 0
03/04/2012 10:02:55Governor Emmanuel Uduaghan And The Queen Of England1686 / 0
01/17/2012 09:21:06Tics And Kinetics Of Nigeria's Revolt828 / 0
01/09/2012 11:03:14Nigeria's Day Of Rage1258 / 2
03/10/2011 23:49:42Invading Abidjan Is No-brainer1146 / 0
11/12/2010 12:03:53Judge Okeke's Headache For Jonathan's Signature1476 / 0
09/23/2009 13:41:18The Law, The S.A.N, And, The Holy Writ1686 / 0
06/07/2009 17:56:02General Obasanjo's Albatrosses1637 / 0
04/08/2009 15:34:13Iwu's Tenure And Falana's Tenor1467 / 0
01/04/2009 09:45:13Buhari Vs. Yar'Adua: The Un-resolved Issue1904 / 0
11/21/2008 08:06:57'They, the People'1145 / 0
06/23/2008 02:06:30Nigeria: Who Is In The Garden?1347 / 0
03/27/2008 12:36:2620 Questions for Head of State1589 / 1
02/18/2008 09:20:10The Trials of Maurice Iwu1513 / 0
01/13/2008 05:56:21Yar'Adua's Nigeria in 20071621 / 2
01/02/2008 10:23:47Why Obasanjo Is Not Liable For Treason On Bakassi2141 / 1
01/01/2008 08:38:33Devils in Ribadu's Details1706 / 2
12/11/2007 03:33:16"Our Flag shall be our Symbol?"1956 / 0
12/06/2007 12:56:43Now, President Yar'Adua bruises the Senate over Bakassi2070 / 6
11/26/2007 13:32:00Nigeria's Senate bluster over Bakassi2777 / 7
11/11/2007 06:48:15Nigeria's Political Triangulation1577 / 1

Contact Info

Seyi Olu Awofeso